sat.trackr.live / text

‹ back to catalog

STARLINK-32436

NORAD 61215 · 2024-171R

PAYLOAD ACTIVE UNKNOWN

§ Identity

Operator
Country
US
Launch date
2024-09-20
Launch site
AFWTR
Launch vehicle
Mass (kg)
RCS (m²)

Purposes: comms

External: N2YO · Heavens-Above · Gunter

§ Orbital elements

Epoch: 2026-09-21T20:16:08.153184Z

Period
93.85 min
Inclination
53.1606°
Eccentricity
0.0001482
Mean motion
15.34395889 rev/d
Perigee alt
461.7 km
Apogee alt
463.7 km
Semi-major
6,840.9 km
B*
-2.3987e-5
RAAN
127.5699°
Arg perigee
92.7864°
Mean anomaly
267.3308°
Rev number
11,245

§ Raw data

STARLINK-324361 61215U 24171R   26264.84453881 -.00001187  00000+0 -23987-4 0  99922 61215  53.1606 127.5699 0001482  92.7864 267.3308 15.34395889112455

JSON: /api/v1/satellites/61215 · /tle

For live sub-satellite position, see the globe view (requires WebGL).

§ Visibility from observer

Set your observer location to see the next 7 days of passes ≥ 10°. The values pass through the URL so the page stays shareable.

No JS? Fill the form by hand. The geolocation button needs JavaScript.